"Pseudo-MPEC" for ST26G65

Created 2026 Jul 23 10:35:11 UT using Find_Orb

Click here for an explanation of pseudo-MPECs

 
 Astrometry: 
     ST26G65* C2026 07 18.22017018 46 16.162+18 40 07.12   ~7I7K 19.83GVNEOCPU68
     ST26G65  C2026 07 18.22351218 46 00.154+18 41 47.08   ~7I7K 19.83GVNEOCPU68

Station data:
(U68) JPL SynTrack Robotic Telescope, Auberry  (N37.070387 W119.412990)
   US/California.  Observers N. Saini, C. Zhai, R. Trahan, M. Zhan, M. Shao.
   0.28-m f/2.2 Schmidt + CCD.

Orbital elements:  ST26G65
   Perihelion 2026 May 31.055518 +/- 63.4 TT =  1:19:56.7 (JD 2461191.555518)
Epoch 2026 Jul 18.0 TT = JDT 2461239.5   Earth MOID: 0.0124   Ma: 0.0360
M  16.430430704 +/- 70              (J2000 ecliptic)             AutoNEOCP
n   0.342697012 +/- 0.468           Peri.  288.624189 +/- 80
a   2.022378796 +/- 1.84            Node   294.678072 +/- 70
e   0.62378476 +/- 0.243            Incl.   75.753519 +/- 40
P   2.87603                H 25.71  G  0.15   U 12.2  SR
q 0.760849720 +/- 0.281    Q 3.283907873 +/- 11.7
From 2 observations 2026 July 18 (4.8 min); mean residual 0".01
Residuals in arcseconds: 
260718 U68  .01+  .00     260718 U68  .01+  .00     

Ephemerides (geocentric):
Date (UTC) HH   RA             Dec           delta  r     elong  mag " sig PA
---- --------  ------------   ------------  ------ ------ -----  --- --------
2026 07 23 11  17 05 45.112   +26 43 51.92  .15421 1.0908 115.3 23.9  45d  98
2026 07 23 12  17 05 34.481   +26 44 24.43  .15519 1.0912 115.3 23.9  45d  98
2026 07 23 13  17 05 23.989   +26 44 56.42  .15616 1.0916 115.2 23.9  45d  98
2026 07 23 14  17 05 13.632   +26 45 27.88  .15714 1.0920 115.2 24.0  45d  98
2026 07 23 15  17 05 03.408   +26 45 58.84  .15811 1.0924 115.1 24.0  45d  98
2026 07 23 16  17 04 53.314   +26 46 29.30  .15909 1.0928 115.1 24.0  45d  98
2026 07 23 17  17 04 43.348   +26 46 59.28  .16007 1.0932 115.0 24.0  45d  98
2026 07 23 18  17 04 33.508   +26 47 28.77  .16104 1.0936 114.9 24.0  45d  98
2026 07 23 19  17 04 23.792   +26 47 57.79  .16202 1.0940 114.9 24.0  45d  98
2026 07 23 20  17 04 14.198   +26 48 26.36  .16300 1.0944 114.8 24.0  45d  98
2026 07 23 21  17 04 04.722   +26 48 54.47  .16397 1.0947 114.8 24.1  46d  98
2026 07 23 22  17 03 55.365   +26 49 22.14  .16495 1.0951 114.7 24.1  46d  98
2026 07 23 23  17 03 46.122   +26 49 49.37  .16592 1.0955 114.7 24.1  46d  98
2026 07 24 00  17 03 36.993   +26 50 16.17  .16690 1.0959 114.6 24.1  46d  98
2026 07 24 01  17 03 27.976   +26 50 42.56  .16788 1.0963 114.6 24.1  46d  98
2026 07 24 02  17 03 19.068   +26 51 08.53  .16885 1.0967 114.5 24.1  46d  98
2026 07 24 03  17 03 10.268   +26 51 34.10  .16983 1.0971 114.5 24.1  46d  98
2026 07 24 04  17 03 01.574   +26 51 59.27  .17081 1.0975 114.4 24.1  46d  98
2026 07 24 05  17 02 52.985   +26 52 24.06  .17178 1.0979 114.4 24.2  46d  98
2026 07 24 06  17 02 44.497   +26 52 48.46  .17276 1.0983 114.3 24.2  46d  98
2026 07 24 07  17 02 36.111   +26 53 12.48  .17374 1.0987 114.3 24.2  46d  98
2026 07 24 08  17 02 27.824   +26 53 36.14  .17471 1.0991 114.2 24.2  46d  98
2026 07 24 09  17 02 19.635   +26 53 59.43  .17569 1.0995 114.2 24.2  46d  98
2026 07 24 10  17 02 11.542   +26 54 22.36  .17667 1.0999 114.1 24.2  46d  98
2026 07 24 11  17 02 03.543   +26 54 44.95  .17764 1.1003 114.1 24.2  46d  98
2026 07 24 12  17 01 55.637   +26 55 07.18  .17862 1.1007 114.0 24.3  46d  98
2026 07 24 13  17 01 47.823   +26 55 29.09  .17960 1.1010 114.0 24.3  46d  98
2026 07 24 14  17 01 40.099   +26 55 50.65  .18057 1.1014 113.9 24.3  46d  98
2026 07 24 15  17 01 32.464   +26 56 11.89  .18155 1.1018 113.9 24.3  46d  98
2026 07 24 16  17 01 24.917   +26 56 32.81  .18253 1.1022 113.8 24.3  46d  98
2026 07 24 17  17 01 17.455   +26 56 53.42  .18351 1.1026 113.8 24.3  46d  98
2026 07 24 18  17 01 10.078   +26 57 13.71  .18448 1.1030 113.7 24.3  46d  98
2026 07 24 19  17 01 02.784   +26 57 33.69  .18546 1.1034 113.7 24.3  46d  98
2026 07 24 20  17 00 55.573   +26 57 53.38  .18644 1.1038 113.6 24.4  46d  98
2026 07 24 21  17 00 48.442   +26 58 12.76  .18741 1.1042 113.6 24.4  46d  98
2026 07 24 22  17 00 41.391   +26 58 31.86  .18839 1.1046 113.6 24.4  46d  98
2026 07 24 23  17 00 34.419   +26 58 50.67  .18937 1.1050 113.5 24.4  46d  98
2026 07 25 00  17 00 27.524   +26 59 09.20  .19034 1.1054 113.5 24.4  46d  98
2026 07 25 01  17 00 20.705   +26 59 27.45  .19132 1.1058 113.4 24.4  46d  98
2026 07 25 02  17 00 13.962   +26 59 45.42  .19230 1.1062 113.4 24.4  46d  98
2026 07 25 03  17 00 07.292   +27 00 03.13  .19327 1.1066 113.3 24.4  46d  98
2026 07 25 04  17 00 00.695   +27 00 20.57  .19425 1.1070 113.3 24.4  46d  98
2026 07 25 05  16 59 54.170   +27 00 37.75  .19523 1.1074 113.2 24.5  46d  98
2026 07 25 06  16 59 47.716   +27 00 54.68  .19621 1.1078 113.2 24.5  46d  98
2026 07 25 07  16 59 41.332   +27 01 11.35  .19718 1.1082 113.2 24.5  46d  98
2026 07 25 08  16 59 35.017   +27 01 27.77  .19816 1.1085 113.1 24.5  46d  98
2026 07 25 09  16 59 28.769   +27 01 43.95  .19914 1.1089 113.1 24.5  46d  98
2026 07 25 10  16 59 22.589   +27 01 59.88  .20011 1.1093 113.0 24.5  46d  98